Location: Rouyn
(48.2500°N, 79.0330°W)
Time: 03:01:58
(UTC-04:00)

ISS - Visible Passes

Search period start: 30 April 2025 00:00
Search period end: 10 May 2025 00:00
Orbit: 417 x 420 km, 51.6° (Epoch: 29 April)

Date Brightness Start Highest point End Pass type
(mag) Time Alt. Az. Time Alt. Az. Time Alt. Az.
30 Apr -3.4 03:12:11 62° ENE 03:12:11 62° ENE 03:15:03 10° ENE visible
30 Apr -2.8 04:45:28 10° WNW 04:48:42 44° N 04:51:57 10° ENE visible
01 May -1.6 02:25:54 21° ENE 02:25:54 21° ENE 02:27:12 10° ENE visible
01 May -2.9 03:58:50 21° WNW 04:00:47 47° N 04:04:02 10° ENE visible
02 May -3.2 03:12:30 51° NW 03:12:49 54° NNW 03:16:08 10° ENE visible
02 May -2.8 04:46:39 10° WNW 04:49:56 48° N 04:53:13 10° E visible
03 May -2.2 02:26:09 34° NE 02:26:09 34° NE 02:28:13 10° ENE visible
03 May -2.7 03:59:03 12° WNW 04:01:57 45° N 04:05:12 10° ENE visible
04 May -1.0 01:39:46 14° ENE 01:39:46 14° ENE 01:40:17 10° ENE visible
04 May -2.7 03:12:41 29° NW 03:13:55 45° N 03:17:11 10° ENE visible
04 May -3.4 04:47:38 10° WNW 04:51:00 69° NNE 04:54:21 10° ESE visible
05 May -2.7 02:26:17 45° NNE 02:26:17 45° NNE 02:29:10 10° ENE visible
05 May -3.1 03:59:40 10° WNW 04:03:00 56° NNE 04:06:19 10° E visible
06 May -1.5 01:39:54 20° ENE 01:39:54 20° ENE 01:41:09 10° ENE visible
06 May -2.8 03:12:48 19° WNW 03:14:57 48° N 03:18:13 10° E visible
06 May -3.8 04:48:29 10° WNW 04:51:50 65° SSW 04:55:09 10° SE visible
07 May -2.7 02:26:27 42° NNW 02:26:51 45° N 02:30:06 10° ENE visible
07 May -3.8 04:00:28 10° WNW 04:03:51 89° NE 04:07:12 10° ESE visible
08 May -1.8 01:40:15 26° NE 01:40:15 26° NE 01:41:58 10° ENE visible
08 May -3.5 03:13:11 16° WNW 03:15:47 68° NNE 03:19:08 10° ESE visible
08 May -2.9 04:49:25 10° W 04:52:24 30° SW 04:55:22 10° SSE visible
08 May -1.9 21:35:45 10° SSE 21:37:26 13° SE 21:38:16 12° ESE visible
08 May -1.9 23:10:22 10° SW 23:11:31 20° SW 23:11:31 20° SW visible
09 May -3.1 02:27:29 54° N 02:27:41 55° NNE 02:31:00 10° E visible
09 May -3.5 04:01:13 10° WNW 04:04:26 45° SSW 04:07:39 10° SE visible
09 May -3.5 22:22:28 10° SW 22:25:40 44° SSE 22:28:53 10° ENE visible
